When you browse on this site, cookies collect data to enhance your experience and personalize the content and advertising you see.
Visit our Privacy Policy to learn more. By continuing to use the site, you agree to this use of cookies and data.
  • In United Kingdom
  • List of Countries
  • For 7 days
  • Water Temperature
  • Weather Map
  • Weather Widgets
  • user-avatar
    Login

    Hourly Weather Khilok

    Today, 24 August, Saturday

    Time Temperature Precipitation Wind Pressure Humidity
    00:00 +13°C° 0 mm 1 mps 683 mmHg 79%
    01:00 +12°C° 0 mm 1 mps 682 mmHg 81%
    02:00 +12°C° 0 mm 1 mps 682 mmHg 83%
    03:00 +12°C° 0 mm 1 mps 682 mmHg 86%
    04:00 +12°C° 0 mm 1 mps 682 mmHg 89%
    05:00 +13°C° 0 mm 1 mps 682 mmHg 83%
    06:00 +15°C° 0 mm 1 mps 682 mmHg 76%
    07:00 +18°C° 0 mm 1 mps 682 mmHg 70%
    08:00 +20°C° 0 mm 1 mps 683 mmHg 63%
    09:00 +21°C° 0 mm 2 mps 683 mmHg 56%
    10:00 +24°C° 0 mm 2 mps 683 mmHg 48%
    11:00 +25°C° 0 mm 2 mps 683 mmHg 45%
    12:00 +26°C° 0 mm 2 mps 683 mmHg 42%
    13:00 +27°C° 0 mm 3 mps 682 mmHg 39%
    14:00 +26°C° 0.2 mm 2 mps 682 mmHg 45%
    15:00 +25°C° 0.2 mm 2 mps 682 mmHg 51%
    16:00 +24°C° 0.2 mm 2 mps 681 mmHg 57%
    17:00 +21°C° 0.4 mm 2 mps 681 mmHg 67%
    18:00 +20°C° 0.4 mm 1 mps 681 mmHg 77%
    19:00 +18°C° 0.4 mm 1 mps 681 mmHg 86%
    20:00 +16°C° 0.1 mm 1 mps 681 mmHg 89%
    21:00 +15°C° 0.1 mm 1 mps 681 mmHg 92%
    22:00 +15°C° 0.1 mm 1 mps 681 mmHg 94%
    23:00 +14°C° 0.3 mm 1 mps 681 mmHg 95%

    Tomorrow, 25 August, Sunday

    Time Temperature Precipitation Wind Pressure Humidity
    00:00 +14°C° 0.3 mm 1 mps 680 mmHg 95%
    01:00 +14°C° 0.3 mm 1 mps 680 mmHg 96%
    02:00 +14°C° 0.6 mm 1 mps 680 mmHg 96%
    03:00 +13°C° 0.6 mm 0 mps 681 mmHg 97%
    04:00 +13°C° 0.6 mm 0 mps 681 mmHg 97%
    05:00 +14°C° 1.6 mm 1 mps 681 mmHg 98%
    06:00 +14°C° 1.6 mm 1 mps 681 mmHg 98%
    07:00 +15°C° 1.6 mm 1 mps 681 mmHg 98%
    08:00 +14°C° 1.2 mm 2 mps 681 mmHg 97%
    09:00 +14°C° 1.2 mm 2 mps 681 mmHg 96%
    10:00 +13°C° 1.2 mm 3 mps 682 mmHg 95%
    11:00 +14°C° 0.1 mm 3 mps 682 mmHg 89%
    12:00 +15°C° 0.1 mm 4 mps 682 mmHg 84%
    13:00 +15°C° 0.1 mm 4 mps 682 mmHg 78%
    14:00 +15°C° 0 mm 4 mps 682 mmHg 77%
    15:00 +15°C° 0 mm 4 mps 682 mmHg 75%
    16:00 +17°C° 0 mm 4 mps 682 mmHg 74%
    17:00 +14°C° 0 mm 3 mps 682 mmHg 78%
    18:00 +13°C° 0 mm 3 mps 682 mmHg 82%
    19:00 +13°C° 0 mm 2 mps 682 mmHg 87%
    20:00 +13°C° 0 mm 2 mps 682 mmHg 86%
    21:00 +12°C° 0 mm 2 mps 683 mmHg 85%
    22:00 +11°C° 0 mm 3 mps 683 mmHg 84%
    23:00 +10°C° 0 mm 3 mps 683 mmHg 84%

    Day after tomorrow, 26 August, Monday

    Time Temperature Precipitation Wind Pressure Humidity
    00:00 +10°C° 0 mm 3 mps 683 mmHg 84%
    01:00 +9°C° 0 mm 3 mps 683 mmHg 84%
    02:00 +8°C° 0 mm 4 mps 683 mmHg 87%
    03:00 +7°C° 0 mm 4 mps 683 mmHg 90%
    04:00 +7°C° 0 mm 4 mps 683 mmHg 94%
    05:00 +8°C° 0 mm 4 mps 683 mmHg 90%
    06:00 +10°C° 0 mm 4 mps 683 mmHg 86%
    07:00 +10°C° 0 mm 4 mps 684 mmHg 83%
    08:00 +11°C° 0 mm 4 mps 684 mmHg 79%
    09:00 +12°C° 0 mm 5 mps 684 mmHg 75%
    10:00 +13°C° 0 mm 5 mps 684 mmHg 71%
    11:00 +14°C° 0.1 mm 5 mps 684 mmHg 70%
    12:00 +14°C° 0.1 mm 5 mps 684 mmHg 70%
    13:00 +15°C° 0.1 mm 5 mps 684 mmHg 69%
    14:00 +15°C° 0.1 mm 5 mps 684 mmHg 68%
    15:00 +15°C° 0.1 mm 5 mps 684 mmHg 66%
    16:00 +15°C° 0.1 mm 5 mps 684 mmHg 65%
    17:00 +14°C° 0 mm 4 mps 684 mmHg 67%
    18:00 +13°C° 0 mm 4 mps 684 mmHg 69%
    19:00 +12°C° 0 mm 3 mps 684 mmHg 72%
    20:00 +12°C° 0 mm 3 mps 684 mmHg 73%
    21:00 +12°C° 0 mm 4 mps 684 mmHg 75%
    22:00 +11°C° 0 mm 4 mps 684 mmHg 76%
    23:00 +11°C° 0 mm 4 mps 685 mmHg 78%

    27 August, Tuesday

    Time Temperature Precipitation Wind Pressure Humidity
    00:00 +11°C° 0 mm 4 mps 685 mmHg 80%
    01:00 +11°C° 0 mm 4 mps 685 mmHg 82%
    02:00 +11°C° 0.3 mm 3 mps 684 mmHg 85%
    03:00 +10°C° 0.3 mm 3 mps 684 mmHg 88%
    04:00 +10°C° 0.3 mm 3 mps 684 mmHg 91%
    05:00 +10°C° 0.2 mm 3 mps 685 mmHg 92%
    06:00 +10°C° 0.2 mm 3 mps 685 mmHg 92%
    07:00 +10°C° 0.2 mm 2 mps 685 mmHg 92%
    08:00 +11°C° 0 mm 3 mps 686 mmHg 88%
    09:00 +13°C° 0 mm 3 mps 686 mmHg 83%
    10:00 +14°C° 0 mm 3 mps 686 mmHg 79%
    11:00 +16°C° 0 mm 3 mps 686 mmHg 72%
    12:00 +18°C° 0 mm 3 mps 686 mmHg 65%
    13:00 +19°C° 0 mm 3 mps 687 mmHg 58%
    14:00 +19°C° 0 mm 3 mps 687 mmHg 56%
    15:00 +20°C° 0 mm 3 mps 687 mmHg 55%
    16:00 +20°C° 0 mm 3 mps 687 mmHg 53%
    17:00 +18°C° 0 mm 2 mps 687 mmHg 62%
    18:00 +16°C° 0 mm 2 mps 687 mmHg 71%
    19:00 +13°C° 0 mm 1 mps 686 mmHg 80%
    20:00 +12°C° 0 mm 1 mps 686 mmHg 82%
    21:00 +11°C° 0 mm 1 mps 686 mmHg 84%
    22:00 +10°C° 0 mm 1 mps 686 mmHg 86%
    23:00 +10°C° 0 mm 1 mps 686 mmHg 87%

    28 August, Wednesday

    Time Temperature Precipitation Wind Pressure Humidity
    00:00 +9°C° 0 mm 1 mps 687 mmHg 88%
    01:00 +9°C° 0 mm 1 mps 687 mmHg 88%
    02:00 +8°C° 0 mm 1 mps 686 mmHg 89%
    03:00 +8°C° 0 mm 1 mps 686 mmHg 90%
    04:00 +7°C° 0 mm 1 mps 686 mmHg 90%
    05:00 +9°C° 0 mm 1 mps 687 mmHg 82%
    06:00 +10°C° 0 mm 0 mps 688 mmHg 74%
    07:00 +12°C° 0 mm 0 mps 688 mmHg 66%
    08:00 +15°C° 0 mm 1 mps 688 mmHg 57%
    09:00 +19°C° 0 mm 1 mps 688 mmHg 48%
    10:00 +21°C° 0 mm 1 mps 688 mmHg 39%
    11:00 +22°C° 0 mm 1 mps 688 mmHg 36%
    12:00 +23°C° 0 mm 1 mps 688 mmHg 33%
    13:00 +24°C° 0 mm 1 mps 688 mmHg 30%
    14:00 +24°C° 0 mm 1 mps 687 mmHg 31%
    15:00 +23°C° 0 mm 1 mps 687 mmHg 32%
    16:00 +23°C° 0 mm 1 mps 687 mmHg 33%
    17:00 +20°C° 0 mm 1 mps 686 mmHg 40%
    18:00 +16°C° 0 mm 1 mps 686 mmHg 48%
    19:00 +13°C° 0 mm 1 mps 686 mmHg 56%
    20:00 +13°C° 0 mm 1 mps 686 mmHg 57%
    21:00 +12°C° 0 mm 1 mps 686 mmHg 59%
    22:00 +11°C° 0 mm 1 mps 686 mmHg 61%
    23:00 +11°C° 0 mm 1 mps 686 mmHg 62%

    29 August, Thursday

    Time Temperature Precipitation Wind Pressure Humidity
    00:00 +10°C° 0 mm 1 mps 685 mmHg 64%
    01:00 +10°C° 0 mm 1 mps 685 mmHg 66%
    02:00 +9°C° 0 mm 1 mps 685 mmHg 67%
    03:00 +9°C° 0 mm 1 mps 685 mmHg 69%
    04:00 +9°C° 0 mm 1 mps 685 mmHg 70%
    05:00 +11°C° 0 mm 1 mps 686 mmHg 66%
    06:00 +12°C° 0 mm 0 mps 686 mmHg 62%
    07:00 +14°C° 0 mm 0 mps 686 mmHg 57%
    08:00 +19°C° 0 mm 1 mps 687 mmHg 52%
    09:00 +21°C° 0 mm 1 mps 687 mmHg 46%
    10:00 +24°C° 0 mm 1 mps 687 mmHg 40%
    11:00 +25°C° 0 mm 1 mps 687 mmHg 38%
    12:00 +25°C° 0 mm 1 mps 686 mmHg 36%
    13:00 +26°C° 0 mm 2 mps 686 mmHg 33%
    14:00 +26°C° 0 mm 2 mps 686 mmHg 35%
    15:00 +26°C° 0 mm 2 mps 686 mmHg 36%
    16:00 +25°C° 0 mm 2 mps 685 mmHg 38%
    17:00 +22°C° 0 mm 1 mps 685 mmHg 45%
    18:00 +19°C° 0 mm 1 mps 685 mmHg 53%
    19:00 +15°C° 0 mm 0 mps 684 mmHg 60%
    20:00 +15°C° 0 mm 1 mps 684 mmHg 62%
    21:00 +14°C° 0 mm 1 mps 684 mmHg 64%
    22:00 +13°C° 0 mm 1 mps 684 mmHg 66%
    23:00 +13°C° 0 mm 1 mps 684 mmHg 67%
    Show more